N4ESA Weather Reports


time (UTC)temp
F
wind
direction
speed
knots
gust
knots
rain 1hr
in
rain 24hr
in
rain mn
in
humidity
%
barometer
mb
20260505200059 82 159 3.5 8.7 0.00 0.00 0.00 50 890.6
20260505200002 82 189 2.6 8.7 0.00 0.00 0.00 48 890.6
20260505194558 82 342 2.6 9.6 0.00 0.00 0.00 51 890.6
20260505193057 82 187 0.9 7.0 0.00 0.00 0.00 50 890.6
20260505191603 82 217 1.7 8.7 0.00 0.00 0.00 47 890.6
20260505184554 81 161 3.5 10.4 0.00 0.00 0.00 49 890.6
20260505183052 80 153 2.6 10.4 0.00 0.00 0.00 50 890.6
20260505181634 80 143 2.6 7.0 0.00 0.00 0.00 53 890.6
20260505174550 81 246 2.6 9.6 0.00 0.00 0.00 53 890.6
20260505173051 80 144 1.7 8.7 0.00 0.00 0.00 54 890.6
20260505171551 80 156 1.7 7.8 0.00 0.00 0.00 56 890.6
20260505170044 79 144 2.6 8.7 0.00 0.00 0.00 54 890.6
20260505164547 79 146 2.6 9.6 0.00 0.00 0.00 55 890.6
20260505163046 79 114 3.5 7.8 0.00 0.00 0.00 54 890.6
20260505161540 79 254 0.9 7.8 0.00 0.00 0.00 56 890.6
20260505153041 77 248 2.6 7.0 0.00 0.00 0.00 63 890.6
20260505151535 76 129 3.5 10.4 0.00 0.00 0.00 61 890.6
20260505124501 65 295 1.7 7.0 0.00 0.00 0.00 77 941.5
20260505123101 64 344 0.9 8.7 0.00 0.00 0.00 80 941.5
20260505121556 62 259 0.0 3.5 0.00 0.00 0.00 83 941.5
20260505120111 60 262 0.0 3.5 0.00 0.00 0.00 83 941.5
20260505114555 58 259 0.0 3.5 0.00 0.00 0.00 88 941.5
20260505113053 55 242 0.0 1.7 0.00 0.00 0.00 92 977.6
20260505111552 52 238 0.0 0.0 0.00 0.00 0.00 96 977.6
20260505110109 50 238 0.0 0.9 0.00 0.00 0.00 96 954.3
20260505101547 50 238 0.0 0.0 0.00 0.00 0.00 94 940.6
20260505100046 50 238 0.0 0.0 0.00 0.00 0.00 93 940.6
20260505094543 51 238 0.0 0.0 0.00 0.00 0.00 92 958.8
20260505093041 52 238 0.0 0.0 0.00 0.00 0.00 90 958.8
20260505091548 52 238 0.0 0.0 0.00 0.00 0.00 89 936.2
20260505090037 53 238 0.0 0.0 0.00 0.00 0.00 87 947.2
20260505084536 54 238 0.0 0.0 0.00 0.00 0.00 86 934.5
20260505083031 55 238 0.0 0.0 0.00 0.00 0.00 84 934.5
20260505081529 55 238 0.0 1.7 0.00 0.00 0.00 84 934.5
20260505080028 55 238 0.0 0.0 0.00 0.00 0.00 84 934.5
20260505074626 56 238 0.0 0.0 0.00 0.00 0.00 82 934.5
20260505073023 57 238 0.0 1.7 0.00 0.00 0.00 81 1078.5
20260505071525 57 238 0.0 1.7 0.00 0.00 0.00 80 1078.5
20260505070019 57 239 0.0 2.6 0.00 0.00 0.00 79 1078.5
20260505064515 58 208 0.0 0.9 0.00 0.00 0.00 78 1078.5
20260505063016 58 221 0.0 1.7 0.00 0.00 0.00 78 1078.5
20260505061513 59 238 0.0 1.7 0.00 0.00 0.00 77 1078.5
20260505060011 59 213 0.0 2.6 0.00 0.00 0.00 76 1078.5
20260505054517 60 240 0.0 3.5 0.00 0.00 0.00 76 1078.5
20260505053006 60 239 0.9 6.1 0.00 0.00 0.00 74 1078.5
20260505051507 61 211 0.0 3.5 0.00 0.00 0.00 73 1078.5
20260505041607 63 111 0.0 8.7 0.00 0.00 0.00 69 1078.5
20260505034609 63 182 0.0 5.2 0.00 0.00 0.00 70 1078.5
20260505033055 63 204 0.9 4.3 0.00 0.00 0.00 70 1078.5
20260505031554 63 174 0.9 4.3 0.00 0.00 0.00 70 1078.5
20260505024607 64 135 0.0 6.1 0.00 0.00 0.00 69 1078.5
20260505023052 65 149 1.7 6.1 0.00 0.00 0.00 68 1078.5
20260505021552 65 132 0.9 6.1 0.00 0.00 0.00 67 1078.5
20260505020104 65 175 1.7 6.1 0.00 0.00 0.00 67 1078.5
20260505014551 66 151 0.9 6.1 0.00 0.00 0.00 66 1078.5
20260505013050 67 149 2.6 7.0 0.00 0.00 0.00 65 1078.5
20260505011550 68 205 0.9 7.8 0.00 0.00 0.00 64 1078.5
20260505010107 68 164 2.6 7.0 0.00 0.00 0.00 64 1078.5
20260505004601 69 171 1.7 8.7 0.00 0.00 0.00 63 1078.5
20260505003052 70 139 4.3 12.2 0.00 0.00 0.00 61 1078.5
20260505001548 71 166 1.7 7.8 0.00 0.00 0.00 60 1078.5
20260505000051 71 130 3.5 14.8 0.00 0.00 0.00 53 1078.5
20260504234546 73 194 0.0 6.1 0.00 0.00 0.00 48 1078.5
20260504233048 74 151 0.9 4.3 0.00 0.00 0.00 46 1078.5
20260504231615 74 251 1.7 5.2 0.00 0.00 0.00 45 1078.5
20260504230045 75 174 0.9 9.6 0.00 0.00 0.00 44 1078.5
20260504224545 76 285 1.7 7.0 0.00 0.00 0.00 43 1078.5
20260504223047 77 131 0.0 10.4 0.00 0.00 0.00 44 1078.5
20260504221607 77 245 0.9 7.8 0.00 0.00 0.00 43 1078.5
20260504220042 79 145 2.6 9.6 0.00 0.00 0.00 42 1078.5
20260504214541 80 221 1.7 7.8 0.00 0.00 0.00 42 1078.5
20260504213044 80 183 2.6 7.8 0.00 0.00 0.00 37 1078.5
20260504211539 80 121 1.7 7.8 0.00 0.00 0.00 42 1078.5
20260504210046 81 264 1.7 5.2 0.00 0.00 0.00 41 1078.5
20260504204537 81 293 2.6 14.8 0.00 0.00 0.00 39 1078.5
20260504203037 80 141 1.7 8.7 0.00 0.00 0.00 38 1078.5
20260504201537 81 154 2.6 7.0 0.00 0.00 0.00 39 1078.5